Regional Weather Roundup
Issued by NWS Bismarck, ND

Home | Current Version | Previous Version | Text Only | Print | Product List | Glossary On
Versions: 1 2 3 4 5 6 7 8 9 10 11 12 13 14 15 16 17 18 19 20 21 22 23 24 25 26 27 28 29 30 31 32 33 34 35 36 37 38 39 40 41 42 43 44 45 46 47 48 49 50
000
ASUS43 KBIS 042310
RWRBIS

NWR BROADCAST TEXT
NATIONAL WEATHER SERVICE BISMARCK ND
500 PM CST SUN DEC 04 2016

NOTE: "FAIR" INDICATES FEW OR NO CLOUDS BELOW 12,000 FEET WITH NO
SIGNIFICANT WEATHER AND/OR OBSTRUCTIONS TO VISIBILITY.


CITY           SKY/WX    TMP DP  RH WIND       PRES   REMARKS
WILLISTON      PTCLDY    30  21  69 S5        29.61F
MINOT          CLEAR     26  19  74 SW7       29.63S WCI  18
MINOT AFB      CLEAR     18  15  87 W5        29.63R WCI  11
BISMARCK       CLEAR     27  20  75 SW6       29.69S
DICKINSON      CLEAR     24  18  77 SW9       29.61F WCI  14
GARRISON         N/A     24  19  81 W5        29.63F WCI  18
HETTINGER ARPT CLEAR     31  23  72 SE6       29.66F
JAMESTOWN      CLEAR     30  27  88 W8        29.67R
BEACH          FAIR      28  21  74 SE6       29.63F
CARRINGTON     FAIR      27  25  93 W9        29.68R WCI  17
HAZEN          FAIR      25  18  74 S6        29.68S WCI  18
RUGBY            N/A     25  25 100 W12       29.64S WCI  14
STANLEY        FAIR      19  19 100 SW6       29.63S WCI  11
TIOGA          FAIR      21  21 100 S5        29.62S WCI  15
WATFORD CITY   FAIR      25  18  74 CALM      29.61F
$$

CITY           SKY/WX    TMP DP  RH WIND       PRES   REMARKS
GRAND FORKS    LGT SNOW  32  28  85 W8        29.64S FOG
GRAND FORKS AF FLURRIES  32  27  80 NW12      29.64S
DEVILS LAKE    FLURRIES  26  24  92 W10       29.65S WCI  16
FARGO          PTCLDY    33  27  78 W15       29.69R
CANDO          CLOUDY    25  25 100 NW12      29.66S WCI  14
CAVALIER       MIX PCPN  32  28  86 W10       29.62R
GRAFTON        LGT SNOW  32  32 100 W5G12     29.65R
GWINNER        MOCLDY    34  32  93 W8        29.72R
LANGDON        CLOUDY    28  27  93 W18       29.60S WCI  16
ROLLA          CLOUDY    23  23 100 W6        29.62R WCI  16
WALHALLA         N/A     30  30 100 NW12G18   29.61R
$$

CITY           SKY/WX    TMP DP  RH WIND       PRES   REMARKS
ABERDEEN       CLEAR     32  26  78 S6        29.75S
MOBRIDGE       CLEAR     31  24  75 S7        29.70S
BUFFALO          N/A     38  24  57 S8        29.58F
RAPID CITY     PTCLDY    38  13  35 CALM      29.67F
GLASGOW        CLOUDY    35  29  78 W8        29.53F
SIDNEY         PTCLDY    32  25  75 SE8       29.60F
WOLF POINT     PTCLDY    41  26  55 S7        29.54F
GLENDIVE       CLEAR     34  25  69 S7        29.59F
MILES CITY     PTCLDY    37  21  52 W9        29.57F
BAKER          CLOUDY    30  21  69 S10       29.61F
$$

CITY           SKY/WX    TMP DP  RH WIND       PRES   REMARKS
BILLINGS       CLOUDY    42  19  39 SW10      29.54F
GREAT FALLS    CLOUDY    36  25  64 W18G26    29.50R
REGINA         MOCLDY    19  18  93 SE9       29.57F WCI   9
ESTEVAN        MOCLDY    16  14  93 E3        29.61S
$$




USA.gov is the U.S. government's official web portal to all federal, state and local government web resources and services.